| time (UTC) | temp C | wind direction | speed KPH | gust KPH | rain 1hr cm | rain 24hr cm | rain mn cm | humidity % | barometer mb |
| 20260901060023 | 15 | 230 | 1.6 | 8.0 | 0.00 | 0.91 | 0.00 | 71 | 1022.8 |
| 20260901055523 | 15 | 229 | 1.6 | 11.3 | 0.00 | 0.91 | 0.91 | 71 | 1022.7 |
| 20260901055023 | 15 | 232 | 0.0 | 4.8 | 0.00 | 0.91 | 0.91 | 71 | 1022.6 |
| 20260901054523 | 15 | 232 | 0.0 | 3.2 | 0.00 | 0.91 | 0.91 | 71 | 1022.7 |
| 20260901054023 | 15 | 232 | 1.6 | 3.2 | 0.00 | 0.91 | 0.91 | 72 | 1022.7 |
| 20260901053523 | 15 | 232 | 3.2 | 6.4 | 0.00 | 0.91 | 0.91 | 72 | 1022.6 |
| 20260901053023 | 15 | 232 | 1.6 | 6.4 | 0.00 | 0.91 | 0.91 | 73 | 1022.6 |
| 20260901052523 | 15 | 232 | 1.6 | 3.2 | 0.00 | 0.91 | 0.91 | 74 | 1022.7 |
| 20260901052023 | 15 | 232 | 0.0 | 3.2 | 0.00 | 0.91 | 0.91 | 75 | 1022.8 |
| 20260901051523 | 15 | 232 | 1.6 | 3.2 | 0.00 | 0.91 | 0.91 | 75 | 1023.2 |
| 20260901051023 | 15 | 232 | 1.6 | 6.4 | 0.00 | 0.91 | 0.91 | 76 | 1023.1 |
| 20260901050523 | 15 | 232 | 0.0 | 1.6 | 0.00 | 0.91 | 0.91 | 77 | 1023.2 |
| 20260901050023 | 15 | 232 | 0.0 | 1.6 | 0.00 | 0.91 | 0.91 | 76 | 1023.2 |
| 20260901045523 | 15 | 232 | 0.0 | 3.2 | 0.00 | 0.91 | 0.91 | 76 | 1023.2 |
| 20260901045023 | 15 | 232 | 0.0 | 3.2 | 0.00 | 0.91 | 0.91 | 76 | 1023.3 |
| 20260901044523 | 15 | 232 | 0.0 | 6.4 | 0.00 | 0.91 | 0.91 | 75 | 1023.4 |
| 20260901044023 | 15 | 232 | 0.0 | 6.4 | 0.00 | 0.91 | 0.91 | 75 | 1023.4 |
| 20260901043523 | 15 | 232 | 1.6 | 3.2 | 0.00 | 0.91 | 0.91 | 75 | 1023.4 |
| 20260901043023 | 15 | 232 | 1.6 | 9.7 | 0.00 | 0.91 | 0.91 | 74 | 1023.3 |
| 20260901042523 | 15 | 232 | 1.6 | 9.7 | 0.00 | 0.91 | 0.91 | 74 | 1023.4 |
| 20260901042023 | 15 | 232 | 1.6 | 8.0 | 0.00 | 0.91 | 0.91 | 74 | 1023.4 |
| 20260901041523 | 15 | 231 | 1.6 | 6.4 | 0.00 | 0.91 | 0.91 | 73 | 1023.5 |
| 20260901041023 | 15 | 231 | 1.6 | 6.4 | 0.00 | 0.91 | 0.91 | 72 | 1023.5 |
| 20260901040523 | 15 | 231 | 1.6 | 3.2 | 0.00 | 0.91 | 0.91 | 72 | 1023.5 |
| 20260901040023 | 15 | 231 | 1.6 | 8.0 | 0.00 | 0.91 | 0.91 | 72 | 1023.4 |
| 20260901035523 | 15 | 231 | 1.6 | 9.7 | 0.00 | 0.91 | 0.91 | 72 | 1023.3 |
| 20260901035023 | 15 | 230 | 1.6 | 1.6 | 0.00 | 0.91 | 0.91 | 72 | 1023.3 |
| 20260901034523 | 15 | 230 | 3.2 | 6.4 | 0.00 | 0.91 | 0.91 | 72 | 1023.2 |
| 20260901034023 | 15 | 230 | 3.2 | 6.4 | 0.00 | 0.91 | 0.91 | 72 | 1023.2 |
| 20260901033523 | 15 | 232 | 3.2 | 8.0 | 0.00 | 0.91 | 0.91 | 71 | 1023.1 |
| 20260901033023 | 15 | 238 | 4.8 | 9.7 | 0.00 | 0.91 | 0.91 | 71 | 1023.0 |
| 20260901032523 | 15 | 232 | 3.2 | 9.7 | 0.00 | 0.91 | 0.91 | 72 | 1022.9 |
| 20260901032023 | 15 | 234 | 1.6 | 8.0 | 0.00 | 0.91 | 0.91 | 73 | 1022.9 |
| 20260901031523 | 15 | 234 | 1.6 | 3.2 | 0.00 | 0.91 | 0.91 | 78 | 1022.9 |
| 20260901031023 | 15 | 234 | 1.6 | 8.0 | 0.00 | 0.91 | 0.91 | 79 | 1022.9 |
| 20260901030523 | 15 | 234 | 1.6 | 3.2 | 0.00 | 0.91 | 0.91 | 78 | 1023.0 |
| 20260901030023 | 15 | 234 | 1.6 | 4.8 | 0.00 | 0.91 | 0.91 | 77 | 1023.0 |
| 20260901025523 | 15 | 234 | 1.6 | 8.0 | 0.00 | 0.91 | 0.91 | 78 | 1022.9 |
| 20260901025023 | 15 | 234 | 1.6 | 4.8 | 0.00 | 0.91 | 0.91 | 78 | 1022.9 |
| 20260901024523 | 15 | 234 | 1.6 | 4.8 | 0.00 | 0.91 | 0.91 | 77 | 1022.8 |
| 20260901024023 | 15 | 234 | 1.6 | 6.4 | 0.00 | 0.91 | 0.91 | 77 | 1022.8 |
| 20260901023523 | 15 | 234 | 1.6 | 8.0 | 0.00 | 0.91 | 0.91 | 76 | 1022.6 |
| 20260901023023 | 15 | 234 | 0.0 | 0.0 | 0.00 | 0.91 | 0.91 | 75 | 1022.7 |
| 20260901022523 | 15 | 234 | 0.0 | 4.8 | 0.00 | 0.91 | 0.91 | 74 | 1022.7 |
| 20260901022023 | 15 | 234 | 0.0 | 3.2 | 0.00 | 0.91 | 0.91 | 74 | 1022.7 |
| 20260901021523 | 16 | 234 | 1.6 | 0.0 | 0.00 | 0.91 | 0.91 | 73 | 1022.7 |
| 20260901021023 | 16 | 234 | 1.6 | 6.4 | 0.00 | 0.91 | 0.91 | 72 | 1022.8 |
| 20260901020523 | 16 | 234 | 1.6 | 4.8 | 0.00 | 0.91 | 0.91 | 72 | 1022.9 |
| 20260901020023 | 16 | 234 | 1.6 | 6.4 | 0.00 | 0.91 | 0.91 | 71 | 1023.0 |
| 20260901015523 | 16 | 234 | 1.6 | 4.8 | 0.00 | 0.91 | 0.91 | 70 | 1023.0 |
| 20260901015023 | 16 | 234 | 1.6 | 1.6 | 0.00 | 0.91 | 0.91 | 69 | 1023.0 |
| 20260901014523 | 16 | 234 | 1.6 | 9.7 | 0.00 | 0.91 | 0.91 | 69 | 1023.0 |
| 20260901014023 | 16 | 235 | 1.6 | 4.8 | 0.00 | 0.91 | 0.91 | 69 | 1023.1 |
| 20260901013523 | 16 | 235 | 1.6 | 8.0 | 0.00 | 0.91 | 0.91 | 70 | 1023.2 |
| 20260901013024 | 16 | 236 | 3.2 | 8.0 | 0.00 | 0.91 | 0.91 | 70 | 1023.4 |
| 20260901012524 | 16 | 233 | 3.2 | 8.0 | 0.00 | 0.91 | 0.91 | 69 | 1023.5 |
| 20260901012024 | 16 | 225 | 1.6 | 8.0 | 0.00 | 0.91 | 0.91 | 69 | 1023.3 |
| 20260901011524 | 16 | 236 | 1.6 | 4.8 | 0.00 | 0.91 | 0.91 | 69 | 1023.3 |
| 20260901011024 | 16 | 238 | 3.2 | 11.3 | 0.00 | 0.91 | 0.91 | 69 | 1023.3 |
| 20260901010524 | 16 | 227 | 3.2 | 11.3 | 0.00 | 0.91 | 0.91 | 70 | 1023.3 |
| 20260901010024 | 16 | 211 | 3.2 | 11.3 | 0.00 | 0.91 | 0.91 | 71 | 1023.3 |
| 20260901005524 | 16 | 234 | 3.2 | 9.7 | 0.03 | 0.91 | 0.91 | 71 | 1023.4 |
| 20260901005024 | 16 | 244 | 3.2 | 12.9 | 0.03 | 0.91 | 0.91 | 72 | 1023.6 |
| 20260901004524 | 16 | 225 | 3.2 | 11.3 | 0.03 | 0.91 | 0.91 | 71 | 1023.5 |
| 20260901004024 | 15 | 261 | 3.2 | 12.9 | 0.03 | 0.91 | 0.91 | 71 | 1023.7 |
| 20260901003524 | 15 | 267 | 3.2 | 12.9 | 0.03 | 0.91 | 0.91 | 71 | 1023.8 |
| 20260901003024 | 15 | 212 | 3.2 | 11.3 | 0.03 | 0.91 | 0.91 | 70 | 1023.7 |
| 20260901002524 | 15 | 271 | 3.2 | 9.7 | 0.03 | 0.91 | 0.91 | 71 | 1023.7 |
| 20260901002024 | 15 | 273 | 3.2 | 6.4 | 0.05 | 0.91 | 0.91 | 72 | 1023.6 |
| 20260901001524 | 16 | 274 | 1.6 | 6.4 | 0.05 | 0.91 | 0.91 | 73 | 1023.7 |
| 20260901001024 | 16 | 275 | 1.6 | 6.4 | 0.08 | 0.91 | 0.91 | 74 | 1023.7 |
| 20260901000524 | 16 | 275 | 1.6 | 8.0 | 0.08 | 0.91 | 0.91 | 72 | 1023.5 |
| 20260901000024 | 16 | 275 | 0.0 | 3.2 | 0.10 | 0.91 | 0.91 | 72 | 1023.4 |
| 20260831235524 | 16 | 275 | 1.6 | 6.4 | 0.08 | 0.89 | 0.89 | 72 | 1023.2 |
| 20260831235024 | 15 | 275 | 1.6 | 8.0 | 0.08 | 0.89 | 0.89 | 73 | 1022.9 |
| 20260831234524 | 15 | 275 | 0.0 | 0.0 | 0.23 | 0.89 | 0.89 | 75 | 1022.8 |
| 20260831234024 | 16 | 275 | 1.6 | 8.0 | 0.56 | 0.89 | 0.89 | 75 | 1022.7 |
| 20260831233524 | 16 | 275 | 3.2 | 16.1 | 0.76 | 0.89 | 0.89 | 74 | 1022.4 |
| 20260831233024 | 16 | 275 | 3.2 | 16.1 | 0.89 | 0.89 | 0.89 | 75 | 1022.2 |
| 20260831232524 | 16 | 273 | 3.2 | 16.1 | 0.89 | 0.89 | 0.89 | 76 | 1021.9 |
| 20260831232024 | 16 | 270 | 1.6 | 11.3 | 0.86 | 0.86 | 0.86 | 79 | 1021.7 |
| 20260831231524 | 16 | 270 | 1.6 | 11.3 | 0.86 | 0.86 | 0.86 | 80 | 1021.7 |
| 20260831231024 | 15 | 268 | 1.6 | 9.7 | 0.84 | 0.84 | 0.84 | 81 | 1021.6 |
| 20260831230524 | 16 | 268 | 0.0 | 6.4 | 0.84 | 0.84 | 0.84 | 80 | 1021.4 |
| 20260831230024 | 16 | 268 | 0.0 | 0.0 | 0.81 | 0.81 | 0.81 | 79 | 1021.4 |
| 20260831225524 | 16 | 268 | 0.0 | 0.0 | 0.81 | 0.81 | 0.81 | 76 | 1021.3 |
| 20260831225024 | 17 | 268 | 1.6 | 4.8 | 0.81 | 0.81 | 0.81 | 73 | 1021.5 |
| 20260831224524 | 18 | 268 | 4.8 | 14.5 | 0.66 | 0.66 | 0.66 | 68 | 1021.3 |
| 20260831224024 | 19 | 264 | 9.7 | 27.4 | 0.33 | 0.33 | 0.33 | 59 | 1020.8 |
| 20260831223524 | 22 | 274 | 8.0 | 22.5 | 0.13 | 0.13 | 0.13 | 51 | 1020.3 |
| 20260831223024 | 23 | 259 | 6.4 | 22.5 | 0.00 | 0.00 | 0.00 | 44 | 1020.1 |
| 20260831222524 | 23 | 262 | 6.4 | 12.9 | 0.00 | 0.00 | 0.00 | 42 | 1019.2 |
| 20260831222024 | 23 | 221 | 6.4 | 14.5 | 0.00 | 0.00 | 0.00 | 42 | 1018.7 |
| 20260831221524 | 23 | 217 | 6.4 | 11.3 | 0.00 | 0.00 | 0.00 | 41 | 1018.7 |
| 20260831221024 | 23 | 192 | 4.8 | 11.3 | 0.00 | 0.00 | 0.00 | 43 | 1018.7 |
| 20260831220524 | 24 | 215 | 4.8 | 11.3 | 0.00 | 0.00 | 0.00 | 43 | 1018.5 |
| 20260831220024 | 24 | 207 | 6.4 | 17.7 | 0.00 | 0.00 | 0.00 | 45 | 1018.4 |
| 20260831215524 | 25 | 231 | 6.4 | 14.5 | 0.00 | 0.00 | 0.00 | 45 | 1018.2 |
| 20260831215024 | 25 | 225 | 6.4 | 14.5 | 0.00 | 0.00 | 0.00 | 45 | 1018.2 |
| 20260831214524 | 25 | 223 | 6.4 | 9.7 | 0.00 | 0.00 | 0.00 | 45 | 1018.2 |
| 20260831214024 | 25 | 224 | 6.4 | 11.3 | 0.00 | 0.00 | 0.00 | 44 | 1018.3 |
| 20260831213524 | 26 | 205 | 8.0 | 20.9 | 0.00 | 0.00 | 0.00 | 43 | 1018.4 |
| 20260831213024 | 26 | 223 | 6.4 | 14.5 | 0.00 | 0.00 | 0.00 | 40 | 1018.5 |
| 20260831212524 | 26 | 227 | 4.8 | 11.3 | 0.00 | 0.00 | 0.00 | 36 | 1018.5 |
| 20260831212024 | 26 | 223 | 3.2 | 11.3 | 0.00 | 0.00 | 0.00 | 38 | 1018.6 |
| 20260831211524 | 27 | 204 | 3.2 | 9.7 | 0.00 | 0.00 | 0.00 | 38 | 1018.6 |
| 20260831211024 | 26 | 175 | 4.8 | 4.8 | 0.00 | 0.00 | 0.00 | 38 | 1018.6 |
| 20260831210524 | 26 | 186 | 4.8 | 9.7 | 0.00 | 0.00 | 0.00 | 37 | 1018.6 |
| 20260831210024 | 26 | 178 | 4.8 | 9.7 | 0.00 | 0.00 | 0.00 | 37 | 1018.6 |
| 20260831205524 | 26 | 217 | 4.8 | 12.9 | 0.00 | 0.00 | 0.00 | 37 | 1018.6 |
| 20260831205024 | 26 | 153 | 4.8 | 12.9 | 0.00 | 0.00 | 0.00 | 39 | 1018.6 |
| 20260831204524 | 26 | 219 | 6.4 | 12.9 | 0.00 | 0.00 | 0.00 | 37 | 1018.7 |
| 20260831204024 | 26 | 206 | 6.4 | 16.1 | 0.00 | 0.00 | 0.00 | 39 | 1018.9 |
| 20260831203524 | 26 | 155 | 4.8 | 11.3 | 0.00 | 0.00 | 0.00 | 39 | 1019.1 |
| 20260831203024 | 26 | 167 | 4.8 | 14.5 | 0.00 | 0.00 | 0.00 | 39 | 1019.0 |
| 20260831202524 | 26 | 177 | 4.8 | 8.0 | 0.00 | 0.00 | 0.00 | 38 | 1019.2 |
| 20260831202024 | 26 | 184 | 6.4 | 19.3 | 0.00 | 0.00 | 0.00 | 39 | 1019.2 |
| 20260831201524 | 26 | 198 | 4.8 | 11.3 | 0.00 | 0.00 | 0.00 | 39 | 1019.2 |
| 20260831201024 | 26 | 196 | 6.4 | 12.9 | 0.00 | 0.00 | 0.00 | 39 | 1019.4 |
| 20260831200524 | 26 | 165 | 6.4 | 12.9 | 0.00 | 0.00 | 0.00 | 41 | 1019.3 |
| 20260831200024 | 26 | 172 | 6.4 | 11.3 | 0.00 | 0.00 | 0.00 | 40 | 1019.4 |
| 20260831195524 | 26 | 200 | 6.4 | 12.9 | 0.00 | 0.00 | 0.00 | 40 | 1019.5 |
| 20260831195024 | 26 | 171 | 4.8 | 11.3 | 0.00 | 0.00 | 0.00 | 41 | 1019.7 |
| 20260831194524 | 26 | 166 | 6.4 | 11.3 | 0.00 | 0.00 | 0.00 | 42 | 1019.7 |
| 20260831194024 | 26 | 182 | 6.4 | 11.3 | 0.00 | 0.00 | 0.00 | 41 | 1019.8 |
| 20260831193524 | 26 | 182 | 8.0 | 14.5 | 0.00 | 0.00 | 0.00 | 40 | 1019.9 |
| 20260831193024 | 26 | 166 | 8.0 | 19.3 | 0.00 | 0.00 | 0.00 | 41 | 1020.0 |
| 20260831192524 | 26 | 168 | 8.0 | 16.1 | 0.00 | 0.00 | 0.00 | 39 | 1020.1 |
| 20260831192024 | 26 | 184 | 6.4 | 14.5 | 0.00 | 0.00 | 0.00 | 39 | 1020.2 |
| 20260831191524 | 26 | 194 | 6.4 | 12.9 | 0.00 | 0.00 | 0.00 | 40 | 1020.2 |
| 20260831191024 | 26 | 165 | 6.4 | 12.9 | 0.00 | 0.00 | 0.00 | 39 | 1020.2 |
| 20260831190524 | 26 | 181 | 6.4 | 17.7 | 0.00 | 0.00 | 0.00 | 39 | 1020.3 |
| 20260831190024 | 26 | 180 | 4.8 | 14.5 | 0.00 | 0.00 | 0.00 | 38 | 1020.4 |
| 20260831185524 | 27 | 192 | 3.2 | 11.3 | 0.00 | 0.00 | 0.00 | 38 | 1020.4 |
| 20260831185024 | 27 | 228 | 3.2 | 11.3 | 0.00 | 0.00 | 0.00 | 40 | 1020.5 |
| 20260831184524 | 26 | 200 | 4.8 | 11.3 | 0.00 | 0.00 | 0.00 | 39 | 1020.6 |
| 20260831184024 | 26 | 224 | 3.2 | 9.7 | 0.00 | 0.00 | 0.00 | 39 | 1020.7 |
| 20260831183524 | 26 | 229 | 4.8 | 11.3 | 0.00 | 0.00 | 0.00 | 39 | 1020.8 |
| 20260831183024 | 26 | 234 | 4.8 | 11.3 | 0.00 | 0.00 | 0.00 | 40 | 1020.8 |
| 20260831182524 | 26 | 232 | 4.8 | 12.9 | 0.00 | 0.00 | 0.00 | 40 | 1020.9 |
| 20260831182024 | 26 | 175 | 3.2 | 8.0 | 0.00 | 0.00 | 0.00 | 41 | 1020.9 |
| 20260831181524 | 26 | 200 | 4.8 | 9.7 | 0.00 | 0.00 | 0.00 | 42 | 1021.2 |
| 20260831181024 | 26 | 164 | 4.8 | 11.3 | 0.00 | 0.00 | 0.00 | 42 | 1021.3 |
| 20260831180524 | 25 | 194 | 3.2 | 8.0 | 0.00 | 0.00 | 0.00 | 42 | 1021.2 |
| 20260831180024 | 25 | 197 | 3.2 | 9.7 | 0.00 | 0.00 | 0.00 | 43 | 1021.3 |
| 20260831175524 | 25 | 198 | 3.2 | 8.0 | 0.00 | 0.00 | 0.00 | 42 | 1021.3 |
| 20260831175024 | 25 | 200 | 3.2 | 11.3 | 0.00 | 0.00 | 0.00 | 39 | 1021.3 |
| 20260831174524 | 25 | 209 | 4.8 | 8.0 | 0.00 | 0.00 | 0.00 | 42 | 1021.3 |
| 20260831174024 | 25 | 215 | 4.8 | 9.7 | 0.00 | 0.00 | 0.00 | 42 | 1021.3 |
| 20260831173524 | 25 | 227 | 4.8 | 9.7 | 0.00 | 0.00 | 0.00 | 43 | 1021.3 |
| 20260831173024 | 25 | 232 | 4.8 | 9.7 | 0.00 | 0.00 | 0.00 | 44 | 1021.3 |
| 20260831172524 | 25 | 262 | 4.8 | 12.9 | 0.00 | 0.00 | 0.00 | 43 | 1021.4 |
| 20260831172024 | 25 | 214 | 4.8 | 12.9 | 0.00 | 0.00 | 0.00 | 43 | 1021.4 |
| 20260831171524 | 24 | 196 | 4.8 | 11.3 | 0.00 | 0.00 | 0.00 | 45 | 1021.3 |
| 20260831171024 | 23 | 194 | 4.8 | 14.5 | 0.00 | 0.00 | 0.00 | 49 | 1021.3 |
| 20260831170524 | 23 | 209 | 4.8 | 14.5 | 0.00 | 0.00 | 0.00 | 49 | 1021.3 |
| 20260831170024 | 23 | 199 | 3.2 | 8.0 | 0.00 | 0.00 | 0.00 | 50 | 1021.4 |
| 20260831165524 | 22 | 202 | 3.2 | 8.0 | 0.00 | 0.00 | 0.00 | 50 | 1021.4 |
| 20260831165024 | 22 | 207 | 3.2 | 11.3 | 0.00 | 0.00 | 0.00 | 50 | 1021.5 |
| 20260831164524 | 22 | 199 | 4.8 | 9.7 | 0.00 | 0.00 | 0.00 | 49 | 1021.4 |
| 20260831164024 | 22 | 209 | 4.8 | 9.7 | 0.00 | 0.00 | 0.00 | 49 | 1021.4 |
| 20260831163524 | 22 | 205 | 4.8 | 9.7 | 0.00 | 0.00 | 0.00 | 47 | 1021.4 |
| 20260831163024 | 22 | 229 | 3.2 | 9.7 | 0.00 | 0.00 | 0.00 | 49 | 1021.3 |
| 20260831162524 | 23 | 229 | 3.2 | 6.4 | 0.00 | 0.00 | 0.00 | 49 | 1021.3 |
| 20260831162024 | 23 | 231 | 3.2 | 6.4 | 0.00 | 0.00 | 0.00 | 48 | 1021.3 |
| 20260831161524 | 23 | 231 | 1.6 | 8.0 | 0.00 | 0.00 | 0.00 | 49 | 1021.2 |
| 20260831161024 | 23 | 231 | 3.2 | 8.0 | 0.00 | 0.00 | 0.00 | 50 | 1021.3 |
| 20260831160524 | 23 | 232 | 1.6 | 8.0 | 0.00 | 0.00 | 0.00 | 49 | 1021.2 |
| 20260831160024 | 23 | 234 | 1.6 | 9.7 | 0.00 | 0.00 | 0.00 | 50 | 1021.2 |
| 20260831155524 | 22 | 236 | 0.0 | 3.2 | 0.00 | 0.00 | 0.00 | 50 | 1021.2 |
| 20260831155024 | 22 | 236 | 0.0 | 0.0 | 0.00 | 0.00 | 0.00 | 49 | 1021.2 |
| 20260831154525 | 22 | 236 | 0.0 | 4.8 | 0.00 | 0.00 | 0.00 | 50 | 1021.3 |
| 20260831154024 | 22 | 236 | 0.0 | 0.0 | 0.00 | 0.00 | 0.00 | 50 | 1021.4 |
| 20260831153524 | 22 | 236 | 0.0 | 4.8 | 0.00 | 0.00 | 0.00 | 49 | 1021.5 |
| 20260831153024 | 22 | 236 | 0.0 | 3.2 | 0.00 | 0.00 | 0.00 | 48 | 1021.6 |
| 20260831152524 | 22 | 236 | 0.0 | 4.8 | 0.00 | 0.00 | 0.00 | 49 | 1021.7 |
| 20260831152024 | 22 | 236 | 0.0 | 0.0 | 0.00 | 0.00 | 0.00 | 49 | 1021.7 |
| 20260831151524 | 22 | 236 | 0.0 | 0.0 | 0.00 | 0.00 | 0.00 | 50 | 1021.6 |
| 20260831151025 | 22 | 236 | 0.0 | 0.0 | 0.00 | 0.00 | 0.00 | 52 | 1021.7 |
| 20260831150524 | 21 | 236 | 0.0 | 0.0 | 0.00 | 0.00 | 0.00 | 52 | 1021.9 |
| 20260831150024 | 21 | 236 | 0.0 | 6.4 | 0.00 | 0.00 | 0.00 | 51 | 1022.0 |
| 20260831145525 | 21 | 235 | 0.0 | 3.2 | 0.00 | 0.00 | 0.00 | 51 | 1022.1 |
| 20260831145025 | 21 | 235 | 0.0 | 0.0 | 0.00 | 0.00 | 0.00 | 52 | 1022.0 |
| 20260831144525 | 21 | 235 | 0.0 | 0.0 | 0.00 | 0.00 | 0.00 | 52 | 1022.0 |
| 20260831143633 | 21 | 235 | 0.0 | 0.0 | 0.00 | 0.00 | 0.00 | 53 | 1022.0 |
| 20260831143133 | 21 | 235 | 0.0 | 0.0 | 0.00 | 0.00 | 0.00 | 54 | 1022.1 |
| 20260831142633 | 20 | 235 | 0.0 | 0.0 | 0.00 | 0.00 | 0.00 | 53 | 1022.0 |
| 20260831142133 | 20 | 238 | 0.0 | 0.0 | 0.00 | 0.00 | 0.00 | 56 | 1022.1 |
| 20260831141633 | 20 | 238 | 0.0 | 0.0 | 0.00 | 0.00 | 0.00 | 56 | 1022.1 |
| 20260831141133 | 19 | 238 | 0.0 | 6.4 | 0.00 | 0.00 | 0.00 | 55 | 1022.0 |
| 20260831140633 | 19 | 190 | 0.0 | 0.0 | 0.00 | 0.00 | 0.00 | 57 | 1022.0 |
| 20260831140133 | 19 | 190 | 0.0 | 0.0 | 0.00 | 0.00 | 0.00 | 61 | 1022.0 |
| 20260831135633 | 18 | 190 | 0.0 | 0.0 | 0.00 | 0.00 | 0.00 | 61 | 1022.0 |
| 20260831135133 | 18 | 190 | 0.0 | 0.0 | 0.00 | 0.00 | 0.00 | 62 | 1022.0 |
| 20260831134633 | 18 | 190 | 0.0 | 0.0 | 0.00 | 0.00 | 0.00 | 61 | 1022.0 |
| 20260831134133 | 18 | 190 | 0.0 | 0.0 | 0.00 | 0.00 | 0.00 | 63 | 1022.0 |
| 20260831133633 | 17 | 191 | 0.0 | 0.0 | 0.00 | 0.00 | 0.00 | 63 | 1021.9 |
| 20260831133133 | 17 | 191 | 0.0 | 0.0 | 0.00 | 0.00 | 0.00 | 65 | 1021.8 |
| 20260831132633 | 16 | 191 | 0.0 | 0.0 | 0.00 | 0.00 | 0.00 | 66 | 1021.8 |
| 20260831132133 | 16 | 191 | 0.0 | 0.0 | 0.00 | 0.00 | 0.00 | 66 | 1021.8 |
| 20260831131633 | 16 | 191 | 0.0 | 0.0 | 0.00 | 0.00 | 0.00 | 67 | 1021.8 |
| 20260831131133 | 16 | 191 | 0.0 | 0.0 | 0.00 | 0.00 | 0.00 | 67 | 1021.8 |
| 20260831130633 | 16 | 191 | 0.0 | 0.0 | 0.00 | 0.00 | 0.00 | 67 | 1021.7 |
| 20260831130133 | 16 | 191 | 0.0 | 0.0 | 0.00 | 0.00 | 0.00 | 67 | 1021.7 |
| 20260831125633 | 16 | 191 | 0.0 | 0.0 | 0.00 | 0.00 | 0.00 | 67 | 1021.6 |
| 20260831125133 | 16 | 191 | 0.0 | 0.0 | 0.00 | 0.00 | 0.00 | 66 | 1021.6 |
| 20260831124633 | 16 | 191 | 0.0 | 0.0 | 0.00 | 0.00 | 0.00 | 66 | 1021.4 |
| 20260831124133 | 16 | 191 | 0.0 | 0.0 | 0.00 | 0.00 | 0.00 | 66 | 1021.6 |
| 20260831123633 | 16 | 191 | 0.0 | 0.0 | 0.00 | 0.00 | 0.00 | 65 | 1021.6 |
| 20260831123133 | 16 | 191 | 0.0 | 0.0 | 0.00 | 0.00 | 0.00 | 63 | 1021.6 |
| 20260831122633 | 17 | 191 | 0.0 | 0.0 | 0.00 | 0.10 | 0.00 | 62 | 1021.6 |
| 20260831122133 | 17 | 191 | 0.0 | 0.0 | 0.00 | 0.10 | 0.00 | 61 | 1021.6 |
| 20260831121633 | 17 | 191 | 0.0 | 0.0 | 0.00 | 0.10 | 0.00 | 61 | 1021.6 |
| 20260831121133 | 17 | 191 | 0.0 | 4.8 | 0.00 | 0.10 | 0.00 | 63 | 1021.6 |
| 20260831120633 | 16 | 189 | 0.0 | 4.8 | 0.00 | 0.10 | 0.00 | 65 | 1021.6 |
| 20260831120133 | 16 | 140 | 0.0 | 4.8 | 0.00 | 0.10 | 0.00 | 68 | 1021.6 |
| 20260831115633 | 15 | 103 | 0.0 | 3.2 | 0.00 | 0.10 | 0.00 | 72 | 1021.6 |
| 20260831115133 | 14 | 98 | 0.0 | 0.0 | 0.00 | 0.10 | 0.00 | 75 | 1021.7 |
| 20260831114633 | 14 | 98 | 0.0 | 0.0 | 0.00 | 0.10 | 0.00 | 75 | 1021.7 |
| 20260831114133 | 14 | 98 | 0.0 | 0.0 | 0.00 | 0.10 | 0.00 | 76 | 1021.8 |
| 20260831113633 | 14 | 98 | 0.0 | 0.0 | 0.00 | 0.10 | 0.00 | 76 | 1021.8 |
| 20260831113133 | 14 | 98 | 0.0 | 0.0 | 0.00 | 0.10 | 0.00 | 74 | 1021.9 |
| 20260831112633 | 14 | 98 | 0.0 | 0.0 | 0.00 | 0.10 | 0.00 | 75 | 1021.9 |
| 20260831112133 | 15 | 98 | 0.0 | 0.0 | 0.00 | 0.10 | 0.00 | 76 | 1021.9 |
| 20260831111633 | 15 | 98 | 0.0 | 0.0 | 0.00 | 0.10 | 0.00 | 76 | 1021.8 |
| 20260831111133 | 15 | 98 | 0.0 | 0.0 | 0.00 | 0.10 | 0.00 | 75 | 1021.9 |
| 20260831110633 | 15 | 98 | 0.0 | 0.0 | 0.00 | 0.10 | 0.00 | 75 | 1021.9 |
| 20260831110133 | 15 | 98 | 0.0 | 0.0 | 0.00 | 0.10 | 0.00 | 73 | 1021.9 |
| 20260831105633 | 14 | 98 | 0.0 | 0.0 | 0.00 | 0.10 | 0.00 | 73 | 1021.8 |
| 20260831105133 | 14 | 98 | 0.0 | 0.0 | 0.00 | 0.10 | 0.00 | 75 | 1021.7 |
| 20260831104633 | 14 | 98 | 0.0 | 0.0 | 0.00 | 0.10 | 0.00 | 75 | 1021.7 |
| 20260831104133 | 14 | 98 | 0.0 | 0.0 | 0.00 | 0.10 | 0.00 | 74 | 1021.7 |
| 20260831103633 | 14 | 98 | 0.0 | 0.0 | 0.00 | 0.10 | 0.00 | 75 | 1021.7 |
| 20260831103134 | 14 | 98 | 0.0 | 0.0 | 0.00 | 0.10 | 0.00 | 74 | 1021.7 |
| 20260831102633 | 14 | 98 | 0.0 | 0.0 | 0.00 | 0.10 | 0.00 | 74 | 1021.6 |
| 20260831102133 | 15 | 98 | 0.0 | 0.0 | 0.00 | 0.10 | 0.00 | 72 | 1021.7 |
| 20260831101633 | 15 | 98 | 0.0 | 0.0 | 0.00 | 0.10 | 0.00 | 72 | 1021.7 |
| 20260831101133 | 15 | 98 | 0.0 | 0.0 | 0.00 | 0.10 | 0.00 | 71 | 1021.7 |
| 20260831100634 | 15 | 98 | 0.0 | 0.0 | 0.00 | 0.10 | 0.00 | 71 | 1021.5 |
| 20260831100134 | 15 | 98 | 0.0 | 0.0 | 0.00 | 0.10 | 0.00 | 71 | 1021.4 |
| 20260831095634 | 15 | 98 | 0.0 | 0.0 | 0.00 | 0.10 | 0.00 | 71 | 1021.4 |
| 20260831095134 | 15 | 98 | 0.0 | 0.0 | 0.00 | 0.10 | 0.00 | 70 | 1021.3 |
| 20260831094634 | 15 | 98 | 0.0 | 0.0 | 0.00 | 0.10 | 0.00 | 70 | 1021.3 |
| 20260831094134 | 15 | 98 | 0.0 | 0.0 | 0.00 | 0.10 | 0.00 | 69 | 1021.3 |
| 20260831093634 | 15 | 98 | 0.0 | 0.0 | 0.00 | 0.10 | 0.00 | 69 | 1021.4 |
| 20260831093134 | 15 | 98 | 0.0 | 0.0 | 0.00 | 0.10 | 0.00 | 69 | 1021.4 |
| 20260831092634 | 16 | 98 | 0.0 | 0.0 | 0.00 | 0.10 | 0.00 | 69 | 1021.3 |
| 20260831092134 | 16 | 98 | 0.0 | 0.0 | 0.00 | 0.10 | 0.00 | 69 | 1021.3 |
| 20260831091634 | 16 | 98 | 0.0 | 0.0 | 0.00 | 0.10 | 0.00 | 69 | 1021.3 |
| 20260831091134 | 16 | 98 | 0.0 | 0.0 | 0.00 | 0.10 | 0.00 | 69 | 1021.2 |
| 20260831090634 | 16 | 98 | 0.0 | 0.0 | 0.00 | 0.10 | 0.00 | 68 | 1021.2 |
| 20260831090134 | 16 | 98 | 0.0 | 0.0 | 0.00 | 0.10 | 0.00 | 68 | 1021.1 |
| 20260831085634 | 16 | 98 | 0.0 | 0.0 | 0.00 | 0.10 | 0.00 | 67 | 1021.2 |
| 20260831085134 | 16 | 98 | 0.0 | 0.0 | 0.00 | 0.10 | 0.00 | 68 | 1021.1 |
| 20260831084634 | 16 | 98 | 0.0 | 0.0 | 0.00 | 0.10 | 0.00 | 68 | 1021.1 |
| 20260831084134 | 16 | 98 | 0.0 | 0.0 | 0.00 | 0.10 | 0.00 | 68 | 1021.0 |
| 20260831083636 | 16 | 98 | 0.0 | 0.0 | 0.00 | 0.10 | 0.00 | 68 | 1021.2 |
| 20260831083134 | 16 | 98 | 0.0 | 0.0 | 0.00 | 0.10 | 0.00 | 68 | 1021.1 |
| 20260831082634 | 16 | 98 | 0.0 | 0.0 | 0.00 | 0.10 | 0.00 | 68 | 1021.1 |
| 20260831082134 | 16 | 98 | 0.0 | 0.0 | 0.00 | 0.10 | 0.00 | 68 | 1021.1 |
| 20260831081634 | 16 | 98 | 0.0 | 0.0 | 0.00 | 0.10 | 0.00 | 69 | 1021.2 |
| 20260831081134 | 16 | 98 | 0.0 | 0.0 | 0.00 | 0.10 | 0.00 | 69 | 1021.2 |
| 20260831080634 | 16 | 98 | 0.0 | 0.0 | 0.00 | 0.10 | 0.00 | 69 | 1021.2 |
| 20260831080134 | 16 | 98 | 0.0 | 0.0 | 0.00 | 0.10 | 0.00 | 69 | 1021.2 |
| 20260831075134 | 16 | 98 | 0.0 | 0.0 | 0.00 | 0.10 | 0.00 | 68 | 1021.2 |
| 20260831074634 | 16 | 98 | 0.0 | 0.0 | 0.00 | 0.10 | 0.00 | 68 | 1021.3 |
| 20260831074134 | 16 | 98 | 0.0 | 0.0 | 0.00 | 0.10 | 0.00 | 68 | 1021.3 |
| 20260831073634 | 16 | 98 | 0.0 | 0.0 | 0.00 | 0.10 | 0.00 | 68 | 1021.3 |
| 20260831073134 | 16 | 98 | 0.0 | 0.0 | 0.00 | 0.10 | 0.00 | 67 | 1021.3 |
| 20260831072634 | 16 | 98 | 0.0 | 0.0 | 0.00 | 0.10 | 0.00 | 67 | 1021.4 |
| 20260831072134 | 16 | 98 | 0.0 | 0.0 | 0.00 | 0.10 | 0.00 | 68 | 1021.5 |
| 20260831071634 | 16 | 98 | 0.0 | 0.0 | 0.00 | 0.10 | 0.00 | 67 | 1021.5 |
| 20260831071134 | 16 | 98 | 0.0 | 0.0 | 0.00 | 0.10 | 0.00 | 67 | 1021.4 |
| 20260831070634 | 16 | 98 | 0.0 | 0.0 | 0.00 | 0.10 | 0.00 | 66 | 1021.5 |
| 20260831070134 | 16 | 98 | 0.0 | 0.0 | 0.00 | 0.10 | 0.00 | 66 | 1021.4 |
| 20260831065634 | 16 | 98 | 0.0 | 0.0 | 0.00 | 0.10 | 0.00 | 66 | 1021.4 |
| 20260831065134 | 16 | 98 | 0.0 | 0.0 | 0.00 | 0.10 | 0.00 | 66 | 1021.4 |
| 20260831064634 | 17 | 98 | 0.0 | 0.0 | 0.00 | 0.10 | 0.00 | 65 | 1021.4 |
| 20260831064134 | 17 | 98 | 0.0 | 0.0 | 0.00 | 0.10 | 0.00 | 64 | 1021.3 |
| 20260831063634 | 17 | 98 | 0.0 | 0.0 | 0.00 | 0.10 | 0.00 | 64 | 1021.3 |
| 20260831063134 | 17 | 98 | 0.0 | 0.0 | 0.00 | 0.10 | 0.00 | 64 | 1021.3 |
| 20260831062634 | 17 | 98 | 0.0 | 0.0 | 0.00 | 0.10 | 0.00 | 64 | 1021.3 |
| 20260831062134 | 17 | 98 | 0.0 | 0.0 | 0.00 | 0.10 | 0.00 | 64 | 1021.3 |
| 20260831061634 | 17 | 98 | 0.0 | 0.0 | 0.00 | 0.10 | 0.00 | 64 | 1021.4 |
| 20260831061134 | 17 | 98 | 0.0 | 0.0 | 0.00 | 0.10 | 0.00 | 64 | 1021.3 |
| 20260831060634 | 17 | 98 | 0.0 | 0.0 | 0.00 | 0.10 | 0.00 | 63 | 1021.3 |